TIANWANG 1A (TW-1A)
1 40928U 15051D   19289.95252498 +.00002293 +00000-0 +56843-4 0  9994
2 40928 097.1364 318.5748 0011327 006.3321 121.2979 15.41349075227696
LAPAN A2
1 40931U 15052B   19289.50813792  .00000770  00000-0  17866-4 0  9990
2 40931   6.0052 282.2210 0015993  47.1467 313.0358 14.76617888219006
LQSAT
1 40958U 15057A   19289.86041120 +.00000014 +00000-0 +98142-5 0  9999
2 40958 097.8870 355.7379 0017447 211.8432 148.1722 14.73091969216508
CHUBUSAT 2
1 41338U 16012B   19289.85764776 +.00000302 +00000-0 +16698-4 0  9997
2 41338 031.0027 101.0786 0013859 214.2920 145.6821 15.00193229200970
CHUBUSAT 3
1 41339U 16012C   19289.81318354  .00000324  00000-0  18400-4 0  9998
2 41339  31.0097  99.3013 0013529 221.5343 138.4274 15.00365665200960
OUFTI-1
1 41458U 16025C   19289.32305467 +.00000990 +00000-0 +54518-4 0  9990
2 41458 098.1007 022.2513 0164608 315.1518 043.6501 15.06084619190574
E-STAR-2
1 41459U 16025D   19289.90021645 +.00000495 +00000-0 +29877-4 0  9998
2 41459 098.1011 022.4501 0165781 314.8014 043.9791 15.05706158190638
AAUSAT 4
1 41460U 16025E   19289.58981298  .00001407  00000-0  74228-4 0  9997
2 41460  98.0970  23.6767 0155894 307.1966  51.5047 15.07691084190738
NUSAT 1
1 41557U 16033B   19289.87402538 +.00001070 +00000-0 +42539-4 0  9996
2 41557 097.4148 016.6695 0012518 228.5759 131.4405 15.27443654188438
BEESAT 4
1 41619U 16040W   19289.73137265  .00001172  00000-0  52188-4 0  9994
2 41619  97.3549 349.6503 0010247 328.9114  31.1516 15.23371001172136
PRATHAM
1 41783U 16059A   19289.76650521 +.00000050 +00000-0 +18844-4 0  9999
2 41783 098.0541 346.6132 0033642 008.7845 351.3939 14.63014120163103
ALSAT 1N
1 41789U 16059G   19289.92595185 +.00000069 +00000-0 +22070-4 0  9993
2 41789 098.0575 349.0292 0028292 357.6271 002.4778 14.64267848163242
NAYIF 1
1 42017U 17008BX  19289.13376116 +.00001311 +00000-0 +54115-4 0  9993
2 42017 097.3915 354.9385 0007894 105.4143 254.7968 15.25792415148132
MAX VALIER SAT
1 42778U 17036P   19289.76953556  .00000814  00000-0  38400-4 0  9992
2 42778  97.3412 344.7138 0013097 155.9485 204.2366 15.22184320128500
